Time,TemperatureF,DewpointF,PressureIn,WindDirection,WindDirectionDegrees,WindSpeedMPH,WindSpeedGustMPH,Humidity,HourlyPrecipIn,Conditions,Clouds,dailyrainin,SolarRadiationWatts/m^2,SoftwareType,DateUTC
2015-05-25 00:00:00,64.8,52.3,30.10,East,90,0.0,1.0,64,0.00,CLR,SCT,0.00,0.0,WeatherDisplay:10.37,2015-05-25 04:00:00,
2015-05-25 00:05:00,64.6,52.1,30.10,East,90,0.0,0.0,64,0.00,CLR,SCT,0.00,0.0,WeatherDisplay:10.37,2015-05-25 04:05:00,
2015-05-25 00:15:00,63.7,52.5,30.10,SSW,202,0.0,2.0,67,0.00,CLR,SCT,0.00,0.0,WeatherDisplay:10.37,2015-05-25 04:15:00,
2015-05-25 00:20:00,63.5,52.3,30.10,WSW,246,0.0,1.0,67,0.00,CLR,SCT,0.00,0.0,WeatherDisplay:10.37,2015-05-25 04:20:00,
2015-05-25 00:25:00,63.1,52.4,30.10,WNW,298,0.0,1.0,68,0.00,CLR,SCT,0.00,0.0,WeatherDisplay:10.37,2015-05-25 04:25:00,
2015-05-25 00:30:00,62.8,52.1,30.10,NW,315,0.0,1.0,68,0.00,CLR,SCT,0.00,0.0,WeatherDisplay:10.37,2015-05-25 04:30:00,
2015-05-25 00:40:00,62.6,52.7,30.10,NW,315,0.0,1.0,70,0.00,CLR,SCT,0.00,0.0,WeatherDisplay:10.37,2015-05-25 04:40:00,
2015-05-25 00:45:00,62.6,52.7,30.10,NW,315,0.0,1.0,70,0.00,CLR,SCT,0.00,0.0,WeatherDisplay:10.37,2015-05-25 04:45:00,
2015-05-25 00:50:00,62.4,52.5,30.11,NW,315,0.0,0.0,70,0.00,CLR,SCT,0.00,0.0,WeatherDisplay:10.37,2015-05-25 04:50:00,
2015-05-25 01:00:00,61.9,52.4,30.10,NW,315,0.0,1.0,71,0.00,CLR,SCT,0.00,0.0,WeatherDisplay:10.37,2015-05-25 05:00:00,
2015-05-25 01:05:00,61.9,52.4,30.10,NW,315,0.0,0.0,71,0.00,CLR,SCT,0.00,0.0,WeatherDisplay:10.37,2015-05-25 05:05:00,
2015-05-25 01:10:00,61.5,52.8,30.10,NW,315,0.0,0.0,73,0.00,CLR,SCT,0.00,0.0,WeatherDisplay:10.37,2015-05-25 05:10:00,
2015-05-25 01:15:00,61.3,53.0,30.10,NW,315,0.0,0.0,74,0.00,CLR,SCT,0.00,0.0,WeatherDisplay:10.37,2015-05-25 05:15:00,
2015-05-25 01:20:00,61.2,52.8,30.10,NW,326,0.0,2.0,74,0.00,CLR,SCT,0.00,0.0,WeatherDisplay:10.37,2015-05-25 05:20:00,
2015-05-25 01:25:00,61.0,53.1,30.10,WSW,247,0.0,2.0,75,0.00,CLR,SCT,0.00,0.0,WeatherDisplay:10.37,2015-05-25 05:25:00,
2015-05-25 01:30:00,61.0,53.0,30.10,SW,225,0.0,1.0,75,0.00,CLR,SCT,0.00,0.0,WeatherDisplay:10.37,2015-05-25 05:30:00,
2015-05-25 01:35:00,60.8,52.8,30.10,SW,215,0.0,2.0,75,0.00,CLR,SCT,0.00,0.0,WeatherDisplay:10.37,2015-05-25 05:35:00,
2015-05-25 01:40:00,60.8,53.2,30.09,SSW,209,0.0,2.0,76,0.00,CLR,SCT,0.00,0.0,WeatherDisplay:10.37,2015-05-25 05:40:00,
2015-05-25 01:45:00,60.6,53.0,30.09,SSW,194,0.0,1.0,76,0.00,CLR,SCT,0.00,0.0,WeatherDisplay:10.37,2015-05-25 05:45:00,
2015-05-25 01:50:00,60.3,53.1,30.09,South,180,0.0,1.0,77,0.00,CLR,SCT,0.00,0.0,WeatherDisplay:10.37,2015-05-25 05:50:00,
2015-05-25 01:55:00,60.3,53.0,30.10,South,177,0.0,2.0,77,0.00,CLR,SCT,0.00,0.0,WeatherDisplay:10.37,2015-05-25 05:55:00,
2015-05-25 02:00:00,60.1,53.2,30.10,SW,223,0.0,2.0,78,0.00,CLR,SCT,0.00,0.0,WeatherDisplay:10.37,2015-05-25 06:00:00,
2015-05-25 02:10:00,59.9,53.4,30.09,West,270,0.0,1.0,79,0.00,CLR,SCT,0.00,0.0,WeatherDisplay:10.37,2015-05-25 06:10:00,
2015-05-25 02:15:00,59.7,53.2,30.09,West,270,0.0,1.0,79,0.00,CLR,SCT,0.00,0.0,WeatherDisplay:10.37,2015-05-25 06:15:00,
2015-05-25 02:20:00,59.5,53.4,30.10,West,270,0.0,1.0,80,0.00,CLR,SCT,0.00,0.0,WeatherDisplay:10.37,2015-05-25 06:20:00,
2015-05-25 02:25:00,59.4,53.5,30.09,West,270,0.0,2.0,81,0.00,CLR,SCT,0.00,0.0,WeatherDisplay:10.37,2015-05-25 06:25:00,
2015-05-25 02:30:00,59.4,53.9,30.10,West,270,0.0,3.0,82,0.00,CLR,SCT,0.00,0.0,WeatherDisplay:10.37,2015-05-25 06:30:00,
2015-05-25 02:35:00,59.4,54.2,30.09,SW,221,0.0,3.0,83,0.00,CLR,SCT,0.00,0.0,WeatherDisplay:10.37,2015-05-25 06:35:00,
2015-05-25 02:45:00,59.5,54.4,30.09,WSW,258,0.0,1.0,83,0.00,CLR,SCT,0.00,0.0,WeatherDisplay:10.37,2015-05-25 06:45:00,
2015-05-25 02:50:00,59.5,54.3,30.09,West,270,0.0,1.0,83,0.00,CLR,SCT,0.00,0.0,WeatherDisplay:10.37,2015-05-25 06:50:00,
2015-05-25 02:55:00,59.5,54.3,30.09,West,270,0.0,1.0,83,0.00,CLR,SCT,0.00,0.0,WeatherDisplay:10.37,2015-05-25 06:55:00,
2015-05-25 03:00:00,59.4,54.2,30.09,West,270,0.0,0.0,83,0.00,CLR,SCT,0.00,0.0,WeatherDisplay:10.37,2015-05-25 07:00:00,
2015-05-25 03:05:00,59.4,54.5,30.09,West,270,0.0,0.0,84,0.00,CLR,SCT,0.00,0.0,WeatherDisplay:10.37,2015-05-25 07:05:00,
2015-05-25 03:10:00,59.4,54.5,30.09,West,270,0.0,1.0,84,0.00,CLR,SCT,0.00,0.0,WeatherDisplay:10.37,2015-05-25 07:10:00,
2015-05-25 03:15:00,59.2,54.3,30.09,West,270,0.0,1.0,84,0.00,CLR,SCT,0.00,0.0,WeatherDisplay:10.37,2015-05-25 07:15:00,
2015-05-25 03:20:00,59.2,54.3,30.09,West,270,0.0,1.0,84,0.00,CLR,SCT,0.00,0.0,WeatherDisplay:10.37,2015-05-25 07:20:00,
2015-05-25 03:30:00,59.0,54.5,30.09,West,270,0.0,1.0,85,0.00,CLR,SCT,0.00,0.0,WeatherDisplay:10.37,2015-05-25 07:30:00,
2015-05-25 03:35:00,58.8,54.3,30.09,West,270,0.0,0.0,85,0.00,CLR,SCT,0.00,0.0,WeatherDisplay:10.37,2015-05-25 07:35:00,
2015-05-25 03:40:00,58.6,54.5,30.10,West,270,0.0,0.0,86,0.00,CLR,SCT,0.00,0.0,WeatherDisplay:10.37,2015-05-25 07:40:00,
2015-05-25 03:45:00,58.5,54.3,30.10,West,270,0.0,1.0,86,0.00,CLR,SCT,0.00,0.0,WeatherDisplay:10.37,2015-05-25 07:45:00,
2015-05-25 03:50:00,58.5,54.6,30.10,West,270,0.0,1.0,87,0.00,CLR,SCT,0.00,0.0,WeatherDisplay:10.37,2015-05-25 07:50:00,
2015-05-25 03:55:00,58.3,54.4,30.10,West,270,0.0,1.0,87,0.00,CLR,SCT,0.00,0.0,WeatherDisplay:10.37,2015-05-25 07:55:00,
2015-05-25 04:05:00,58.3,54.7,30.10,West,270,0.0,0.0,88,0.00,CLR,SCT,0.00,0.0,WeatherDisplay:10.37,2015-05-25 08:05:00,
2015-05-25 04:10:00,57.9,54.7,30.10,West,270,0.0,0.0,89,0.00,CLR,SCT,0.00,0.0,WeatherDisplay:10.37,2015-05-25 08:10:00,
2015-05-25 04:15:00,57.7,54.5,30.10,West,270,0.0,0.0,89,0.00,CLR,SCT,0.00,0.0,WeatherDisplay:10.37,2015-05-25 08:15:00,
2015-05-25 04:20:00,57.6,54.3,30.10,West,270,0.0,0.0,89,0.00,CLR,SCT,0.00,0.0,WeatherDisplay:10.37,2015-05-25 08:20:00,
2015-05-25 04:30:00,57.3,54.7,30.10,West,270,0.0,0.0,91,0.00,CLR,SCT,0.00,0.0,WeatherDisplay:10.37,2015-05-25 08:30:00,
2015-05-25 04:35:00,57.2,54.6,30.10,West,270,0.0,0.0,91,0.00,CLR,SCT,0.00,0.0,WeatherDisplay:10.37,2015-05-25 08:35:00,
2015-05-25 04:40:00,57.0,54.7,30.10,West,270,0.0,0.0,92,0.00,CLR,SCT,0.00,0.0,WeatherDisplay:10.37,2015-05-25 08:40:00,
2015-05-25 04:45:00,56.8,54.5,30.10,West,270,0.0,0.0,92,0.00,CLR,SCT,0.00,0.0,WeatherDisplay:10.37,2015-05-25 08:45:00,
2015-05-25 04:50:00,56.7,54.4,30.10,West,270,0.0,0.0,92,0.00,CLR,SCT,0.00,0.0,WeatherDisplay:10.37,2015-05-25 08:50:00,
2015-05-25 05:00:00,56.4,54.7,30.11,West,270,0.0,0.0,94,0.00,CLR,SCT,0.00,0.0,WeatherDisplay:10.37,2015-05-25 09:00:00,
2015-05-25 05:10:00,56.1,54.7,30.11,West,270,0.0,0.0,95,0.00,CLR,SCT,0.00,0.0,WeatherDisplay:10.37,2015-05-25 09:10:00,
2015-05-25 05:20:00,55.8,54.6,30.11,West,270,0.0,0.0,96,0.00,CLR,SCT,0.00,0.0,WeatherDisplay:10.37,2015-05-25 09:20:00,
2015-05-25 05:25:00,55.6,54.5,30.11,West,270,0.0,0.0,96,0.00,CLR,SCT,0.00,0.0,WeatherDisplay:10.37,2015-05-25 09:25:00,
2015-05-25 05:30:00,55.4,54.6,30.11,West,270,0.0,0.0,97,0.00,CLR,SCT,0.00,0.0,WeatherDisplay:10.37,2015-05-25 09:30:00,
2015-05-25 05:40:00,55.2,54.7,30.11,West,270,0.0,0.0,98,0.00,CLR,SCT,0.00,0.0,WeatherDisplay:10.37,2015-05-25 09:40:00,
2015-05-25 05:45:00,55.2,54.7,30.12,West,270,0.0,0.0,98,0.00,CLR,SCT,0.00,0.0,WeatherDisplay:10.37,2015-05-25 09:45:00,
2015-05-25 05:50:00,55.2,54.9,30.11,West,270,0.0,0.0,99,0.00,CLR,SCT,0.00,0.0,WeatherDisplay:10.37,2015-05-25 09:50:00,
2015-05-25 05:55:00,55.2,54.9,30.12,West,270,0.0,0.0,99,0.00,CLR,SCT,0.00,0.0,WeatherDisplay:10.37,2015-05-25 09:55:00,
2015-05-25 06:00:00,55.2,54.9,30.12,West,270,0.0,0.0,99,0.00,CLR,SCT,0.00,0.0,WeatherDisplay:10.37,2015-05-25 10:00:00,
2015-05-25 06:05:00,55.2,54.9,30.12,West,270,0.0,0.0,99,0.00,CLR,SCT,0.00,0.0,WeatherDisplay:10.37,2015-05-25 10:05:00,
2015-05-25 06:10:00,55.4,55.1,30.12,West,270,0.0,0.0,99,0.00,CLR,SCT,0.00,0.0,WeatherDisplay:10.37,2015-05-25 10:10:00,
2015-05-25 06:15:00,55.6,55.3,30.12,West,270,0.0,0.0,99,0.00,CLR,SCT,0.00,0.0,WeatherDisplay:10.37,2015-05-25 10:15:00,
2015-05-25 06:20:00,55.8,55.5,30.12,West,270,0.0,0.0,99,0.00,CLR,SCT,0.00,0.0,WeatherDisplay:10.37,2015-05-25 10:20:00,
2015-05-25 06:25:00,55.9,55.7,30.12,West,270,0.0,0.0,99,0.00,CLR,SCT,0.00,0.0,WeatherDisplay:10.37,2015-05-25 10:25:00,
2015-05-25 06:30:00,56.1,55.8,30.12,West,270,0.0,0.0,99,0.00,CLR,SCT,0.00,0.0,WeatherDisplay:10.37,2015-05-25 10:30:00,
2015-05-25 06:35:00,56.3,56.0,30.12,West,270,0.0,0.0,99,0.00,CLR,SCT,0.00,0.0,WeatherDisplay:10.37,2015-05-25 10:35:00,
2015-05-25 06:40:00,56.5,56.2,30.12,West,270,0.0,0.0,99,0.00,CLR,SCT,0.00,0.0,WeatherDisplay:10.37,2015-05-25 10:40:00,
2015-05-25 06:50:00,57.0,56.7,30.12,West,270,0.0,0.0,99,0.00,CLR,SCT,0.00,0.0,WeatherDisplay:10.37,2015-05-25 10:50:00,
2015-05-25 06:55:00,57.4,57.1,30.12,West,270,0.0,0.0,99,0.00,CLR,SCT,0.00,0.0,WeatherDisplay:10.37,2015-05-25 10:55:00,
2015-05-25 07:05:00,58.3,58.0,30.12,West,270,0.0,1.0,99,0.00,CLR,SCT,0.00,0.0,WeatherDisplay:10.37,2015-05-25 11:05:00,
2015-05-25 07:10:00,58.9,58.7,30.12,West,270,0.0,1.0,99,0.00,CLR,SCT,0.00,0.0,WeatherDisplay:10.37,2015-05-25 11:10:00,
2015-05-25 07:15:00,59.6,59.4,30.12,West,270,0.0,2.0,99,0.00,CLR,SCT,0.00,0.0,WeatherDisplay:10.37,2015-05-25 11:15:00,
2015-05-25 07:20:00,60.5,60.2,30.12,East,90,0.0,2.0,99,0.00,CLR,SCT,0.00,0.0,WeatherDisplay:10.37,2015-05-25 11:20:00,
2015-05-25 07:25:00,61.3,61.0,30.12,East,87,0.0,2.0,99,0.00,CLR,SCT,0.00,0.0,WeatherDisplay:10.37,2015-05-25 11:25:00,
2015-05-25 07:30:00,62.3,61.2,30.12,East,84,0.0,2.0,96,0.00,CLR,SCT,0.00,0.0,WeatherDisplay:10.37,2015-05-25 11:30:00,
2015-05-25 07:35:00,63.3,61.5,30.12,ESE,106,0.0,2.0,94,0.00,CLR,SCT,0.00,0.0,WeatherDisplay:10.37,2015-05-25 11:35:00,
2015-05-25 07:40:00,64.0,61.6,30.11,South,180,0.0,2.0,92,0.00,CLR,SCT,0.00,0.0,WeatherDisplay:10.37,2015-05-25 11:40:00,
2015-05-25 07:45:00,64.8,61.2,30.11,South,178,0.0,2.0,88,0.00,CLR,SCT,0.00,0.0,WeatherDisplay:10.37,2015-05-25 11:45:00,
2015-05-25 07:50:00,65.5,61.6,30.12,SSE,154,0.0,2.0,87,0.00,CLR,SCT,0.00,0.0,WeatherDisplay:10.37,2015-05-25 11:50:00,
2015-05-25 07:55:00,66.7,61.7,30.12,ESE,122,1.0,4.0,84,0.00,CLR,SCT,0.00,0.0,WeatherDisplay:10.37,2015-05-25 11:55:00,
2015-05-25 08:05:00,67.6,61.9,30.12,WNW,298,0.0,2.0,82,0.00,CLR,SCT,0.00,0.0,WeatherDisplay:10.37,2015-05-25 12:05:00,
2015-05-25 08:15:00,67.8,62.1,30.12,NW,316,0.0,3.0,82,0.00,CLR,SCT,0.00,0.0,WeatherDisplay:10.37,2015-05-25 12:15:00,
2015-05-25 08:20:00,68.2,62.1,30.12,NW,314,1.0,3.0,81,0.00,CLR,SCT,0.00,0.0,WeatherDisplay:10.37,2015-05-25 12:20:00,
2015-05-25 08:25:00,68.7,62.6,30.12,East,97,0.0,3.0,81,0.00,CLR,SCT,0.00,0.0,WeatherDisplay:10.37,2015-05-25 12:25:00,
2015-05-25 08:30:00,69.2,62.4,30.12,East,88,0.0,2.0,79,0.00,CLR,SCT,0.00,0.0,WeatherDisplay:10.37,2015-05-25 12:30:00,
2015-05-25 08:35:00,69.8,62.7,30.12,ESE,113,0.0,2.0,78,0.00,CLR,SCT,0.00,0.0,WeatherDisplay:10.37,2015-05-25 12:35:00,
2015-05-25 08:40:00,70.5,62.2,30.12,SSE,159,0.0,3.0,75,0.00,CLR,SCT,0.00,0.0,WeatherDisplay:10.37,2015-05-25 12:40:00,
2015-05-25 08:45:00,71.3,62.2,30.12,SW,214,1.0,6.0,73,0.00,CLR,SCT,0.00,0.0,WeatherDisplay:10.37,2015-05-25 12:45:00,
2015-05-25 08:50:00,71.9,62.4,30.12,West,276,2.0,4.0,72,0.00,CLR,SCT,0.00,0.0,WeatherDisplay:10.37,2015-05-25 12:50:00,
2015-05-25 08:55:00,72.6,61.0,30.12,SSE,147,0.0,8.0,67,0.00,CLR,SCT,0.00,0.0,WeatherDisplay:10.37,2015-05-25 12:55:00,
2015-05-25 09:00:00,72.8,60.3,30.12,ESE,115,2.0,5.0,65,0.00,CLR,SCT,0.00,0.0,WeatherDisplay:10.37,2015-05-25 13:00:00,
2015-05-25 09:10:00,72.9,60.4,30.12,North,4,2.0,4.0,65,0.00,CLR,SCT,0.00,0.0,WeatherDisplay:10.37,2015-05-25 13:10:00,
2015-05-25 09:15:00,73.1,60.6,30.12,NNE,25,0.0,3.0,65,0.00,CLR,SCT,0.00,0.0,WeatherDisplay:10.37,2015-05-25 13:15:00,
2015-05-25 09:20:00,73.4,60.9,30.12,North,6,0.0,2.0,65,0.00,CLR,SCT,0.00,0.0,WeatherDisplay:10.37,2015-05-25 13:20:00,
2015-05-25 09:25:00,73.8,61.3,30.12,North,354,0.0,6.0,65,0.00,CLR,SCT,0.00,0.0,WeatherDisplay:10.37,2015-05-25 13:25:00,
2015-05-25 09:30:00,73.8,60.4,30.12,North,2,0.0,3.0,63,0.00,CLR,SCT,0.00,0.0,WeatherDisplay:10.37,2015-05-25 13:30:00,
2015-05-25 09:35:00,73.8,60.8,30.11,East,90,0.0,3.0,64,0.00,CLR,SCT,0.00,0.0,WeatherDisplay:10.37,2015-05-25 13:35:00,
2015-05-25 09:40:00,73.9,60.5,30.12,East,85,1.0,4.0,63,0.00,CLR,SCT,0.00,0.0,WeatherDisplay:10.37,2015-05-25 13:40:00,
2015-05-25 09:45:00,74.2,61.3,30.12,NE,41,0.0,4.0,64,0.00,CLR,SCT,0.00,0.0,WeatherDisplay:10.37,2015-05-25 13:45:00,
2015-05-25 09:55:00,75.2,61.3,30.12,NNE,29,2.0,6.0,62,0.00,CLR,SCT,0.00,0.0,WeatherDisplay:10.37,2015-05-25 13:55:00,
2015-05-25 10:00:00,74.8,60.9,30.12,NE,35,1.0,6.0,62,0.00,CLR,SCT,0.00,0.0,WeatherDisplay:10.37,2015-05-25 14:00:00,
2015-05-25 10:05:00,74.8,60.9,30.12,NE,39,1.0,5.0,62,0.00,FEW,SCT,0.00,0.0,WeatherDisplay:10.37,2015-05-25 14:05:00,
2015-05-25 10:10:00,74.8,61.4,30.12,NE,56,0.0,3.0,63,0.00,FEW,SCT,0.00,0.0,WeatherDisplay:10.37,2015-05-25 14:10:00,
2015-05-25 10:15:00,75.0,61.1,30.12,East,85,1.0,4.0,62,0.00,FEW,SCT,0.00,0.0,WeatherDisplay:10.37,2015-05-25 14:15:00,
2015-05-25 10:20:00,75.0,60.7,30.12,NNE,20,1.0,3.0,61,0.00,FEW,SCT,0.00,0.0,WeatherDisplay:10.37,2015-05-25 14:20:00,
2015-05-25 10:25:00,75.0,60.7,30.12,North,6,0.0,3.0,61,0.00,FEW,SCT,0.00,0.0,WeatherDisplay:10.37,2015-05-25 14:25:00,
2015-05-25 10:30:00,75.0,61.1,30.13,NE,36,0.0,4.0,62,0.00,FEW,SCT,0.00,0.0,WeatherDisplay:10.37,2015-05-25 14:30:00,
2015-05-25 10:35:00,74.8,60.9,30.13,NNE,13,2.0,6.0,62,0.00,FEW,SCT,0.00,0.0,WeatherDisplay:10.37,2015-05-25 14:35:00,
2015-05-25 10:40:00,75.4,61.9,30.13,North,6,0.0,6.0,63,0.00,FEW,SCT,0.00,0.0,WeatherDisplay:10.37,2015-05-25 14:40:00,
2015-05-25 10:50:00,75.7,61.7,30.12,NNW,342,0.0,3.0,62,0.00,FEW,SCT,0.00,0.0,WeatherDisplay:10.37,2015-05-25 14:50:00,
2015-05-25 11:00:00,75.8,62.3,30.13,SSE,168,0.0,2.0,63,0.00,FEW,SCT,0.00,0.0,WeatherDisplay:10.37,2015-05-25 15:00:00,
2015-05-25 11:10:00,75.6,62.1,30.13,East,92,0.0,2.0,63,0.00,-RA,SCT,0.00,0.0,WeatherDisplay:10.37,2015-05-25 15:10:00,
2015-05-25 11:20:00,77.0,63.4,30.13,NE,55,0.0,3.0,63,0.00,-RA,SCT,0.00,0.0,WeatherDisplay:10.37,2015-05-25 15:20:00,
2015-05-25 11:25:00,77.7,64.6,30.13,West,266,0.0,2.0,64,0.00,-RA,SCT,0.00,0.0,WeatherDisplay:10.37,2015-05-25 15:25:00,
2015-05-25 11:30:00,77.7,62.2,30.12,West,261,0.0,2.0,59,0.00,-RA,SCT,0.00,0.0,WeatherDisplay:10.37,2015-05-25 15:30:00,
2015-05-25 11:40:00,76.8,60.9,30.12,ENE,61,1.0,5.0,58,0.00,-RA,SCT,0.00,0.0,WeatherDisplay:10.37,2015-05-25 15:40:00,
2015-05-25 11:45:00,76.8,62.8,30.12,North,357,0.0,3.0,62,0.00,-RA,SCT,0.00,0.0,WeatherDisplay:10.37,2015-05-25 15:45:00,
2015-05-25 11:50:00,76.8,61.9,30.12,NNW,329,0.0,2.0,60,0.00,-RA,SCT,0.00,0.0,WeatherDisplay:10.37,2015-05-25 15:50:00,
2015-05-25 12:00:00,76.3,61.4,30.11,North,8,0.0,2.0,60,0.00,-RA,SCT,0.00,0.0,WeatherDisplay:10.37,2015-05-25 16:00:00,
2015-05-25 12:05:00,76.3,61.8,30.11,North,2,0.0,1.0,61,0.00,SCT,SCT,0.00,0.0,WeatherDisplay:10.37,2015-05-25 16:05:00,
2015-05-25 12:15:00,76.5,63.4,30.11,WSW,238,0.0,2.0,64,0.00,SCT,SCT,0.00,0.0,WeatherDisplay:10.37,2015-05-25 16:15:00,
2015-05-25 12:20:00,76.1,63.5,30.12,SW,225,0.0,2.0,65,0.00,SCT,SCT,0.00,0.0,WeatherDisplay:10.37,2015-05-25 16:20:00,
2015-05-25 12:30:00,75.8,63.2,30.11,South,176,1.0,2.0,65,0.00,SCT,SCT,0.00,0.0,WeatherDisplay:10.37,2015-05-25 16:30:00,
2015-05-25 12:35:00,76.1,63.5,30.11,SSE,168,0.0,2.0,65,0.00,SCT,SCT,0.00,0.0,WeatherDisplay:10.37,2015-05-25 16:35:00,
2015-05-25 12:40:00,76.1,63.0,30.10,South,173,0.0,2.0,64,0.00,SCT,SCT,0.00,0.0,WeatherDisplay:10.37,2015-05-25 16:40:00,
2015-05-25 12:45:00,76.7,64.1,30.10,South,170,0.0,2.0,65,0.00,SCT,SCT,0.00,0.0,WeatherDisplay:10.37,2015-05-25 16:45:00,
2015-05-25 12:50:00,76.8,63.7,30.10,SSE,158,1.0,4.0,64,0.00,SCT,SCT,0.00,0.0,WeatherDisplay:10.37,2015-05-25 16:50:00,
2015-05-25 13:00:00,76.0,62.5,30.10,East,91,0.0,4.0,63,0.00,SCT,SCT,0.00,0.0,WeatherDisplay:10.37,2015-05-25 17:00:00,
2015-05-25 13:05:00,75.9,63.3,30.10,NNE,22,0.0,2.0,65,0.00,SCT,SCT,0.00,0.0,WeatherDisplay:10.37,2015-05-25 17:05:00,
2015-05-25 13:10:00,76.0,63.0,30.10,SW,229,0.0,2.0,64,0.00,SCT,SCT,0.00,0.0,WeatherDisplay:10.37,2015-05-25 17:10:00,
2015-05-25 13:15:00,75.6,62.6,30.10,SSW,197,0.0,2.0,64,0.00,SCT,SCT,0.00,0.0,WeatherDisplay:10.37,2015-05-25 17:15:00,
2015-05-25 13:20:00,75.6,62.5,30.10,SW,214,0.0,1.0,64,0.00,SCT,SCT,0.00,0.0,WeatherDisplay:10.37,2015-05-25 17:20:00,
2015-05-25 13:25:00,75.0,63.3,30.10,SSW,203,0.0,2.0,67,0.00,SCT,SCT,0.00,0.0,WeatherDisplay:10.37,2015-05-25 17:25:00,
2015-05-25 13:30:00,74.7,63.4,30.10,South,184,0.0,3.0,68,0.00,SCT,SCT,0.00,0.0,WeatherDisplay:10.37,2015-05-25 17:30:00,
2015-05-25 13:35:00,74.3,63.5,30.10,SSE,163,0.0,3.0,69,0.00,SCT,SCT,0.00,0.0,WeatherDisplay:10.37,2015-05-25 17:35:00,
2015-05-25 13:40:00,74.3,63.9,30.10,ENE,76,0.0,1.0,70,0.00,SCT,SCT,0.00,0.0,WeatherDisplay:10.37,2015-05-25 17:40:00,
2015-05-25 13:45:00,74.8,64.4,30.10,ENE,62,0.0,1.0,70,0.00,SCT,SCT,0.00,0.0,WeatherDisplay:10.37,2015-05-25 17:45:00,
2015-05-25 13:50:00,75.2,64.3,30.10,North,9,0.0,3.0,69,0.00,SCT,SCT,0.00,0.0,WeatherDisplay:10.37,2015-05-25 17:50:00,
2015-05-25 13:55:00,75.6,64.7,30.10,WSW,245,0.0,2.0,69,0.00,SCT,SCT,0.00,0.0,WeatherDisplay:10.37,2015-05-25 17:55:00,
2015-05-25 14:00:00,75.8,64.1,30.10,WNW,290,1.0,5.0,67,0.00,SCT,SCT,0.00,0.0,WeatherDisplay:10.37,2015-05-25 18:00:00,
2015-05-25 14:10:00,75.8,64.5,30.10,ENE,69,0.0,2.0,68,0.00,FEW,SCT,0.00,0.0,WeatherDisplay:10.37,2015-05-25 18:10:00,
2015-05-25 14:15:00,75.7,64.0,30.09,NNE,16,1.0,3.0,67,0.00,FEW,SCT,0.00,0.0,WeatherDisplay:10.37,2015-05-25 18:15:00,
2015-05-25 14:20:00,75.7,64.0,30.09,NNE,33,1.0,3.0,67,0.00,FEW,SCT,0.00,0.0,WeatherDisplay:10.37,2015-05-25 18:20:00,
2015-05-25 14:25:00,75.8,64.0,30.09,East,100,0.0,2.0,67,0.00,FEW,SCT,0.00,0.0,WeatherDisplay:10.37,2015-05-25 18:25:00,
2015-05-25 14:30:00,75.6,63.8,30.09,ESE,105,0.0,2.0,67,0.00,FEW,SCT,0.00,0.0,WeatherDisplay:10.37,2015-05-25 18:30:00,
2015-05-25 14:40:00,75.2,63.5,30.08,WSW,245,0.0,2.0,67,0.00,FEW,SCT,0.00,0.0,WeatherDisplay:10.37,2015-05-25 18:40:00,
2015-05-25 14:45:00,75.2,63.5,30.08,WSW,255,1.0,2.0,67,0.00,FEW,SCT,0.00,0.0,WeatherDisplay:10.37,2015-05-25 18:45:00,
2015-05-25 14:50:00,75.7,64.4,30.08,ESE,115,0.0,3.0,68,0.00,FEW,SCT,0.00,0.0,WeatherDisplay:10.37,2015-05-25 18:50:00,
2015-05-25 14:55:00,76.4,64.6,30.08,ESE,111,0.0,3.0,67,0.00,FEW,SCT,0.00,0.0,WeatherDisplay:10.37,2015-05-25 18:55:00,
2015-05-25 15:00:00,77.0,64.3,30.08,ESE,117,1.0,4.0,65,0.00,FEW,SCT,0.00,0.0,WeatherDisplay:10.37,2015-05-25 19:00:00,
2015-05-25 15:05:00,77.0,64.3,30.08,East,99,1.0,3.0,65,0.00,CLR,SCT,0.00,0.0,WeatherDisplay:10.37,2015-05-25 19:05:00,
2015-05-25 15:10:00,77.4,64.7,30.08,ESE,108,1.0,4.0,65,0.00,CLR,SCT,0.00,0.0,WeatherDisplay:10.37,2015-05-25 19:10:00,
2015-05-25 15:15:00,77.8,65.5,30.07,SE,135,0.0,3.0,66,0.00,CLR,SCT,0.00,0.0,WeatherDisplay:10.37,2015-05-25 19:15:00,
2015-05-25 15:20:00,78.3,65.5,30.07,South,170,2.0,5.0,65,0.00,CLR,SCT,0.00,0.0,WeatherDisplay:10.37,2015-05-25 19:20:00,
2015-05-25 15:30:00,78.4,66.5,30.06,ESE,110,0.0,5.0,67,0.00,CLR,SCT,0.00,0.0,WeatherDisplay:10.37,2015-05-25 19:30:00,
2015-05-25 15:35:00,78.8,66.9,30.06,East,101,0.0,2.0,67,0.00,CLR,SCT,0.00,0.0,WeatherDisplay:10.37,2015-05-25 19:35:00,
2015-05-25 15:40:00,78.8,66.1,30.06,SE,144,2.0,6.0,65,0.00,CLR,SCT,0.00,0.0,WeatherDisplay:10.37,2015-05-25 19:40:00,
2015-05-25 15:45:00,79.4,67.5,30.06,SE,137,0.0,6.0,67,0.00,CLR,SCT,0.00,0.0,WeatherDisplay:10.37,2015-05-25 19:45:00,
2015-05-25 15:50:00,80.6,68.6,30.06,South,184,0.0,2.0,67,0.00,CLR,SCT,0.00,0.0,WeatherDisplay:10.37,2015-05-25 19:50:00,
2015-05-25 15:55:00,81.1,67.3,30.06,SW,229,0.0,6.0,63,0.00,CLR,SCT,0.00,0.0,WeatherDisplay:10.37,2015-05-25 19:55:00,
2015-05-25 16:00:00,81.5,67.7,30.05,SSE,161,0.0,4.0,63,0.00,CLR,SCT,0.00,0.0,WeatherDisplay:10.37,2015-05-25 20:00:00,
2015-05-25 16:10:00,82.0,67.3,30.04,East,98,1.0,4.0,61,0.00,CLR,SCT,0.00,0.0,WeatherDisplay:10.37,2015-05-25 20:10:00,
2015-05-25 16:15:00,82.7,68.3,30.04,ESE,102,0.0,5.0,62,0.00,CLR,SCT,0.00,0.0,WeatherDisplay:10.37,2015-05-25 20:15:00,
2015-05-25 16:20:00,84.0,68.1,30.04,South,175,1.0,5.0,59,0.00,CLR,SCT,0.00,0.0,WeatherDisplay:10.37,2015-05-25 20:20:00,
2015-05-25 16:25:00,84.4,68.5,30.04,SSE,149,1.0,6.0,59,0.00,CLR,SCT,0.00,0.0,WeatherDisplay:10.37,2015-05-25 20:25:00,
2015-05-25 16:35:00,84.0,67.1,30.04,SSW,210,1.0,5.0,57,0.00,CLR,SCT,0.00,0.0,WeatherDisplay:10.37,2015-05-25 20:35:00,
2015-05-25 16:40:00,84.3,67.9,30.03,SW,223,1.0,5.0,58,0.00,CLR,SCT,0.00,0.0,WeatherDisplay:10.37,2015-05-25 20:40:00,
2015-05-25 16:45:00,85.1,68.1,30.04,WSW,237,1.0,5.0,57,0.00,CLR,SCT,0.00,0.0,WeatherDisplay:10.37,2015-05-25 20:45:00,
2015-05-25 16:50:00,85.0,67.0,30.03,South,175,2.0,5.0,55,0.00,CLR,SCT,0.00,0.0,WeatherDisplay:10.37,2015-05-25 20:50:00,
2015-05-25 16:55:00,84.8,66.3,30.03,South,190,2.0,11.0,54,0.00,CLR,SCT,0.00,0.0,WeatherDisplay:10.37,2015-05-25 20:55:00,
2015-05-25 17:00:00,85.1,66.6,30.03,SSW,198,1.0,6.0,54,0.00,CLR,SCT,0.00,0.0,WeatherDisplay:10.37,2015-05-25 21:00:00,
2015-05-25 17:10:00,83.7,64.7,30.03,SSE,158,1.0,5.0,53,0.00,FEW,SCT,0.00,0.0,WeatherDisplay:10.37,2015-05-25 21:10:00,
2015-05-25 17:15:00,83.1,64.8,30.03,SE,125,1.0,6.0,54,0.00,FEW,SCT,0.00,0.0,WeatherDisplay:10.37,2015-05-25 21:15:00,
2015-05-25 17:20:00,83.0,65.1,30.03,ESE,112,1.0,4.0,55,0.00,FEW,SCT,0.00,0.0,WeatherDisplay:10.37,2015-05-25 21:20:00,
2015-05-25 17:25:00,82.4,64.6,30.02,East,84,1.0,4.0,55,0.00,FEW,SCT,0.00,0.0,WeatherDisplay:10.37,2015-05-25 21:25:00,
2015-05-25 17:30:00,82.0,64.3,30.02,SE,133,2.0,6.0,55,0.00,FEW,SCT,0.00,0.0,WeatherDisplay:10.37,2015-05-25 21:30:00,
2015-05-25 17:35:00,81.9,64.6,30.02,South,185,1.0,5.0,56,0.00,FEW,SCT,0.00,0.0,WeatherDisplay:10.37,2015-05-25 21:35:00,
2015-05-25 17:40:00,81.7,64.5,30.02,SSE,162,1.0,5.0,56,0.00,FEW,SCT,0.00,0.0,WeatherDisplay:10.37,2015-05-25 21:40:00,